| time (UTC) | temp F | wind direction | speed MPH | gust MPH | rain 1hr in | rain 24hr in | rain mn in | humidity % | barometer mb |
| 20260504090105 | 48 | 26 | 8.0 | 15.0 | 0.00 | 0.00 | 0.00 | 51 | 1015.2 |
| 20260504081553 | 50 | 121 | 7.0 | 18.0 | 0.00 | 0.00 | 0.00 | 48 | 1014.2 |
| 20260504044555 | 48 | 182 | 6.0 | 12.0 | 0.00 | 0.00 | 0.00 | 45 | 1011.1 |
| 20260504043053 | 49 | 181 | 5.0 | 9.0 | 0.00 | 0.00 | 0.00 | 45 | 1011.1 |
| 20260504041552 | 49 | 198 | 6.0 | 11.0 | 0.00 | 0.00 | 0.00 | 44 | 1011.0 |
| 20260504040057 | 50 | 162 | 4.0 | 10.0 | 0.00 | 0.00 | 0.00 | 43 | 1010.9 |
| 20260504034550 | 51 | 157 | 4.0 | 8.0 | 0.00 | 0.00 | 0.00 | 42 | 1011.0 |
| 20260504033047 | 51 | 175 | 3.0 | 7.0 | 0.00 | 0.00 | 0.00 | 41 | 1010.9 |
| 20260504031549 | 52 | 180 | 3.0 | 6.0 | 0.00 | 0.00 | 0.00 | 40 | 1010.9 |
| 20260504030048 | 54 | 174 | 4.0 | 8.0 | 0.00 | 0.00 | 0.00 | 36 | 1010.8 |
| 20260504024550 | 57 | 159 | 3.0 | 7.0 | 0.00 | 0.00 | 0.00 | 32 | 1010.8 |
| 20260504023048 | 61 | 302 | 2.0 | 3.0 | 0.00 | 0.00 | 0.00 | 28 | 1010.7 |
| 20260504021550 | 63 | 0 | 1.0 | 5.0 | 0.00 | 0.00 | 0.00 | 22 | 1010.6 |
| 20260504020050 | 64 | 266 | 2.0 | 11.0 | 0.00 | 0.00 | 0.00 | 20 | 1010.6 |
| 20260504014549 | 65 | 300 | 3.0 | 7.0 | 0.00 | 0.00 | 0.00 | 21 | 1010.8 |
| 20260504013103 | 67 | 249 | 3.0 | 11.0 | 0.00 | 0.00 | 0.00 | 23 | 1010.8 |
| 20260504011548 | 67 | 267 | 5.0 | 13.0 | 0.00 | 0.00 | 0.00 | 23 | 1011.0 |
| 20260504010057 | 68 | 304 | 4.0 | 12.0 | 0.00 | 0.00 | 0.00 | 21 | 1010.9 |
| 20260504004555 | 68 | 301 | 4.0 | 16.0 | 0.00 | 0.00 | 0.00 | 21 | 1011.0 |
| 20260504003048 | 68 | 345 | 6.0 | 16.0 | 0.00 | 0.00 | 0.00 | 22 | 1011.1 |
| 20260504001549 | 69 | 319 | 5.0 | 16.0 | 0.00 | 0.00 | 0.00 | 22 | 1011.2 |
| 20260504000056 | 69 | 296 | 4.0 | 17.0 | 0.00 | 0.00 | 0.00 | 20 | 1011.2 |
| 20260503234549 | 69 | 324 | 8.0 | 17.0 | 0.00 | 0.00 | 0.00 | 21 | 1011.1 |
| 20260503233049 | 69 | 348 | 6.0 | 17.0 | 0.00 | 0.00 | 0.00 | 20 | 1011.1 |
| 20260503231553 | 70 | 317 | 4.0 | 12.0 | 0.00 | 0.00 | 0.00 | 21 | 1011.2 |
| 20260503230055 | 70 | 313 | 6.0 | 17.0 | 0.00 | 0.00 | 0.00 | 22 | 1011.4 |
| 20260503224549 | 70 | 280 | 5.0 | 16.0 | 0.00 | 0.00 | 0.00 | 23 | 1011.7 |
| 20260503223052 | 69 | 272 | 8.0 | 15.0 | 0.00 | 0.00 | 0.00 | 23 | 1011.7 |
| 20260503221546 | 70 | 311 | 5.0 | 11.0 | 0.00 | 0.00 | 0.00 | 26 | 1011.8 |
| 20260503220049 | 69 | 258 | 6.0 | 17.0 | 0.00 | 0.00 | 0.00 | 26 | 1012.2 |
| 20260503214550 | 69 | 307 | 6.0 | 21.0 | 0.00 | 0.00 | 0.00 | 28 | 1012.2 |
| 20260503213048 | 69 | 292 | 6.0 | 16.0 | 0.00 | 0.00 | 0.00 | 30 | 1012.4 |
| 20260503211549 | 69 | 304 | 6.0 | 18.0 | 0.00 | 0.00 | 0.00 | 27 | 1012.7 |
| 20260503210047 | 68 | 285 | 4.0 | 14.0 | 0.00 | 0.00 | 0.00 | 27 | 1013.0 |
| 20260503204547 | 69 | 224 | 4.0 | 13.0 | 0.00 | 0.00 | 0.00 | 27 | 1013.2 |
| 20260503203052 | 67 | 317 | 4.0 | 13.0 | 0.00 | 0.00 | 0.00 | 28 | 1013.4 |
| 20260503201547 | 67 | 254 | 6.0 | 14.0 | 0.00 | 0.00 | 0.00 | 34 | 1013.4 |
| 20260503200050 | 66 | 275 | 5.0 | 11.0 | 0.00 | 0.00 | 0.00 | 36 | 1013.6 |
| 20260503194548 | 66 | 303 | 4.0 | 14.0 | 0.00 | 0.00 | 0.00 | 34 | 1013.7 |
| 20260503193048 | 66 | 259 | 5.0 | 15.0 | 0.00 | 0.00 | 0.00 | 34 | 1013.9 |
| 20260503191557 | 66 | 224 | 4.0 | 14.0 | 0.00 | 0.00 | 0.00 | 32 | 1014.0 |
| 20260503190052 | 65 | 294 | 5.0 | 14.0 | 0.00 | 0.00 | 0.00 | 34 | 1014.2 |
| 20260503184559 | 65 | 227 | 6.0 | 14.0 | 0.00 | 0.00 | 0.00 | 30 | 1014.5 |
| 20260503183049 | 64 | 360 | 6.0 | 14.0 | 0.00 | 0.00 | 0.00 | 33 | 1014.9 |
| 20260503181548 | 64 | 242 | 7.0 | 18.0 | 0.00 | 0.00 | 0.00 | 33 | 1015.2 |
| 20260503180101 | 63 | 234 | 5.0 | 13.0 | 0.00 | 0.00 | 0.00 | 35 | 1015.2 |
| 20260503174550 | 63 | 227 | 6.0 | 15.0 | 0.00 | 0.00 | 0.00 | 34 | 1015.4 |
| 20260503173056 | 63 | 293 | 6.0 | 12.0 | 0.00 | 0.00 | 0.00 | 38 | 1015.3 |
| 20260503171550 | 62 | 338 | 6.0 | 12.0 | 0.00 | 0.00 | 0.00 | 40 | 1015.5 |